Lid_Strength_Index
4 4 4 4 4 4 4 4 4 4 5 5 5 5 5 5 5 5 5 5 5 5 5 4 4 4 6 9 10 7 -2 -1 0 1 3 5 8 9 11 10 7 8 7 6 5 6 6
4 4 4 4 4 4 5 5 5 5 5 5 5 4 5 5 4 5 5 5 5 5 5 4 4 4 8 15 8 6 5 1 1 2 4 5 7 8 10 10 9 6 6 6 6 6 6
4 4 4 4 4 5 4 4 5 5 5 5 5 5 5 5 5 5 5 5 5 5 5 4 4 5 7 12 7 7 6 4 1 4 5 4 5 8 9 10 8 8 9 7 7 7 7
4 4 4 4 4 4 4 4 4 5 5 5 5 5 5 5 5 5 6 6 6 5 4 4 4 5 11 6 6 7 7 8 4 4 6 5 5 8 10 9 9 12 12 14 11 7 6
4 4 4 4 4 4 5 5 5 5 5 5 5 5 5 5 5 6 6 6 6 5 4 3 6 8 11 3 5 5 7 8 6 6 5 3 6 9 10 11 13 14 15 14 12 8 7
4 4 4 5 5 5 5 5 5 5 5 5 5 6 6 6 6 6 7 6 6 5 3 4 4 10 8 9 5 5 7 6 7 7 6 7 8 11 13 13 16 15 15 14 13 10 8
4 4 4 4 5 5 5 5 5 5 5 5 6 6 6 6 7 7 8 11 12 13 10 9 9 9 8 7 5 5 7 8 8 9 11 10 12 13 11 12 12 12 14 14 12 9 9
4 4 4 4 4 4 4 5 5 5 6 6 6 6 6 6 7 7 11 13 12 12 15 11 11 10 8 8 9 8 7 9 10 11 11 12 13 10 9 10 11 12 14 13 12 10 10
4 4 4 4 4 4 4 5 5 5 5 5 6 6 6 7 7 10 12 12 10 12 16 13 11 12 11 9 10 9 8 9 11 12 12 12 11 9 9 10 11 13 14 13 13 11 9
4 4 4 4 4 4 4 5 5 5 5 5 5 6 6 7 11 11 12 10 10 11 18 15 14 12 11 9 11 7 6 8 11 11 12 13 10 10 11 11 10 13 11 11 12 13 15
4 4 4 4 4 4 5 5 5 5 5 5 5 6 6 7 12 12 11 10 9 14 19 10 13 10 12 12 11 10 7 9 11 11 12 13 11 11 12 10 9 11 9 11 12 14 15
4 4 5 4 4 4 5 5 5 5 5 5 6 6 7 9 11 10 10 10 13 17 20 13 11 13 13 13 12 10 10 9 9 11 12 11 9 10 11 9 9 8 10 12 14 15 17
4 5 5 5 5 5 5 5 5 5 5 6 6 7 7 8 12 10 10 12 18 20 13 13 14 13 14 15 13 11 11 12 12 15 14 12 12 10 9 11 10 11 13 16 19 19 17
5 5 5 5 5 5 5 5 5 5 6 6 7 8 9 9 10 10 12 16 21 15 15 12 13 13 14 13 14 13 11 12 10 13 13 15 15 11 10 11 12 13 12 17 20 20 18
6 5 5 5 5 5 5 5 5 5 6 7 8 11 12 11 9 11 15 20 19 16 13 13 13 15 15 13 14 14 15 12 10 12 14 15 14 10 9 9 9 13 14 12 17 16 18
5 5 5 5 4 4 4 4 5 5 5 6 10 12 13 9 10 13 17 18 17 13 12 13 16 15 17 16 15 15 15 13 13 10 13 14 16 12 10 9 10 11 12 15 18 18 18
4 4 3 3 2 3 3 3 3 4 4 5 12 15 11 10 12 14 19 18 15 12 12 14 15 16 16 16 15 16 15 12 11 11 12 15 16 14 11 13 12 13 14 16 15 16 17
3 2 2 2 2 2 2 2 2 2 3 7 13 17 11 10 16 17 17 15 12 12 11 13 13 14 15 14 16 16 15 13 10 11 14 13 17 15 13 11 9 10 12 15 16 17 17
2 2 1 1 0 -0 -1 -0 0 0 1 6 10 12 7 9 15 16 14 12 11 13 12 13 14 13 13 15 17 14 13 10 11 12 13 12 17 19 17 15 13 13 12 11 12 16 15
1 0 -0 -1 -1 -1 -1 -1 -1 -0 -0 5 8 11 9 9 8 11 13 13 13 10 10 11 12 12 13 15 14 15 14 11 11 12 9 13 17 17 18 17 14 15 13 12 13 15 14
0 -1 -1 -1 -2 -2 -2 -2 -1 -1 -0 3 6 10 9 11 10 10 10 10 11 11 8 9 12 12 13 16 14 15 14 14 12 10 13 15 18 17 15 14 13 13 12 11 14 13 14
-1 -1 -1 -2 -2 -2 -2 -2 -1 -1 -1 4 7 8 6 8 7 10 9 10 10 10 10 10 11 10 11 14 13 15 15 16 16 13 15 15 17 16 16 13 13 13 12 12 12 11 13
-1 -1 -1 -2 -2 -2 -2 -2 -2 -1 0 4 3 3 6 8 8 10 11 10 10 8 8 8 8 9 11 10 9 9 12 14 14 15 16 17 17 18 19 15 14 15 13 12 11 11 11
-1 -1 -1 -1 -1 -1 -1 -2 -2 -1 -0 2 3 3 7 10 9 9 8 8 9 8 9 8 8 9 7 6 7 8 10 12 13 14 13 16 17 17 19 17 19 13 10 9 11 11 11
0 -0 -1 -1 -1 -1 -1 -1 -1 -2 -1 3 3 4 6 10 8 8 8 8 8 8 9 9 8 6 6 8 11 13 12 13 12 13 14 13 14 17 19 18 15 12 11 11 12 12 10
0 0 -0 -0 -0 -0 -1 -1 -1 -1 -1 3 4 2 4 8 9 6 9 8 9 10 9 8 6 6 7 10 12 16 17 15 14 12 11 13 13 14 17 19 18 13 9 7 8 13 9
1 1 0 0 0 -0 -0 -1 -1 -1 -1 3 4 2 3 8 6 6 8 9 6 8 10 9 8 8 8 11 14 15 15 12 15 15 14 13 13 16 16 16 15 10 9 8 13 12 8
1 1 1 1 0 -0 -0 -1 -1 -1 -1 2 3 3 4 6 6 5 5 6 7 7 10 9 9 8 10 12 13 13 14 13 14 12 14 15 15 16 15 16 18 9 9 14 11 8 8
1 1 1 1 1 1 1 0 -0 -0 -0 0 4 2 1 4 5 4 3 3 4 4 7 8 9 9 8 11 11 11 13 12 14 16 10 14 13 14 12 13 10 9 8 7 7 8 8